Weather History for KLBL - March, 2014

Change the Weather History Date:

Tuesday, March 4, 2014

  Actual Average Record
Temperature  
Mean Temperature 37 °F -  
Max Temperature 57 °F 56 °F 84 °F (2009)
Min Temperature 17 °F 26 °F 4 °F (1952)
Degree Days  
Heating Degree Days 28    
Moisture  
Dew Point 27 °F    
Average Humidity 69    
Maximum Humidity 80    
Minimum Humidity 51    
Precipitation  
Precipitation 0.00 in - - ()
Sea Level Pressure  
Sea Level Pressure 29.91 in    
Wind  
Wind Speed 8 mph (SSE)    
Max Wind Speed 13 mph    
Max Gust Speed -    
Visibility 10 miles    
Events      
Averages and records for this station are not official NWS values.
T = Trace of Precipitation, MM = Missing Value Source: NWS Daily Summary

Daily Weather History Graph

Daily Weather History Graph

Search for Another Location

Airport or City:

Trip Planner

Search our weather history database for the weather conditions in past years. The results will help you decide how hot, cold, wet, or windy it might be!

Date:

Astronomy

Mar. 04, 2014 Rise Set
Actual Time 7:10 AM CST 6:40 PM CST
Civil Twilight 6:44 AM CST 7:06 PM CST
Nautical Twilight 6:14 AM CST 7:37 PM CST
Astronomical Twilight 5:44 AM CST 8:07 PM CST
Moon 9:03 AM CST 10:43 PM CST
Length of Visible Light 12h 22m
Length of Day
11h 30m
Waxing Crescent, 15% of the Moon is Illuminated
Mar 4
Waxing Crescent
Mar 8
First Quarter
Mar 16
Full
Mar 23
Last Quarter
Mar 30
New

Hourly Weather History & Observations

Time (CST) Temp. Windchill Dew Point Humidity Pressure Visibility Wind Dir Wind Speed Gust Speed Precip Events Conditions
12:15 AM 21.2 °F 10.1 °F 15.8 °F 80% 30.04 in 10.0 mi SE 10.4 mph - N/A   Clear
12:35 AM 21.2 °F 10.9 °F 15.8 °F 80% 30.03 in 10.0 mi SE 9.2 mph - N/A   Clear
12:55 AM 23.0 °F 13.1 °F 17.6 °F 80% 30.03 in 10.0 mi SSE 9.2 mph - N/A   Clear
1:15 AM 23.0 °F 12.4 °F 15.8 °F 74% 30.02 in 10.0 mi SSE 10.4 mph - N/A   Clear
1:35 AM 21.2 °F 10.9 °F 15.8 °F 80% 30.02 in 10.0 mi SSE 9.2 mph - N/A   Clear
1:55 AM 23.0 °F 13.1 °F 17.6 °F 80% 30.01 in 10.0 mi SSE 9.2 mph - N/A   Clear
2:15 AM 21.2 °F 10.9 °F 15.8 °F 80% 30.01 in 10.0 mi SSE 9.2 mph - N/A   Clear
2:35 AM 21.2 °F 10.1 °F 15.8 °F 80% 30.00 in 10.0 mi SSE 10.4 mph - N/A   Clear
2:55 AM 21.2 °F 10.1 °F 15.8 °F 80% 29.99 in 10.0 mi SSE 10.4 mph - N/A   Clear
3:15 AM 21.2 °F 11.7 °F 15.8 °F 80% 29.99 in 10.0 mi SSE 8.1 mph - N/A   Clear
3:35 AM 21.2 °F 10.1 °F 15.8 °F 80% 29.98 in 10.0 mi South 10.4 mph - N/A   Clear
3:55 AM 21.2 °F 10.9 °F 15.8 °F 80% 29.98 in 10.0 mi South 9.2 mph - N/A   Clear
4:15 AM 21.2 °F 10.9 °F 15.8 °F 80% 29.97 in 10.0 mi South 9.2 mph - N/A   Clear
4:35 AM 21.2 °F 10.9 °F 15.8 °F 80% 29.96 in 10.0 mi South 9.2 mph - N/A   Clear
4:55 AM 21.2 °F 12.6 °F 15.8 °F 80% 29.97 in 10.0 mi SSW 6.9 mph - N/A   Clear
5:15 AM 21.2 °F 12.6 °F 15.8 °F 80% 29.97 in 10.0 mi SSW 6.9 mph - N/A   Clear
5:35 AM 21.2 °F 13.6 °F 14.0 °F 74% 29.97 in 10.0 mi SSW 5.8 mph - N/A   Clear
5:55 AM 19.4 °F 11.5 °F 14.0 °F 80% 29.97 in 10.0 mi SSW 5.8 mph - N/A   Clear
6:15 AM 17.6 °F 7.3 °F 12.2 °F 79% 29.96 in 10.0 mi SSW 8.1 mph - N/A   Clear
6:35 AM 17.6 °F 9.3 °F 12.2 °F 79% 29.96 in 10.0 mi SSW 5.8 mph - N/A   Clear
6:55 AM 17.6 °F 8.2 °F 12.2 °F 79% 29.95 in 10.0 mi SSW 6.9 mph - N/A   Clear
7:15 AM 17.6 °F 10.7 °F 12.2 °F 79% 29.95 in 10.0 mi WSW 4.6 mph - N/A   Clear
7:35 AM 17.6 °F 9.3 °F 12.2 °F 79% 29.94 in 10.0 mi SW 5.8 mph - N/A   Clear
7:55 AM 17.6 °F 9.3 °F 12.2 °F 79% 29.94 in 10.0 mi SSW 5.8 mph - N/A   Clear
8:15 AM 21.2 °F 13.6 °F 15.8 °F 80% 29.95 in 10.0 mi West 5.8 mph - N/A   Clear
8:35 AM 24.8 °F 16.9 °F 17.6 °F 74% 29.96 in 10.0 mi West 6.9 mph - N/A   Clear
8:55 AM 26.6 °F 19.1 °F 19.4 °F 74% 29.95 in 10.0 mi West 6.9 mph - N/A   Clear
9:15 AM 28.4 °F 23.3 °F 23.0 °F 80% 29.95 in 10.0 mi WNW 4.6 mph - N/A   Clear
9:35 AM 30.2 °F 25.4 °F 24.8 °F 80% 29.95 in 10.0 mi WNW 4.6 mph - N/A   Clear
9:55 AM 33.8 °F - 26.6 °F 75% 29.95 in 10.0 mi Calm Calm - N/A   Clear
10:15 AM 35.6 °F - 28.4 °F 75% 29.96 in 10.0 mi Calm Calm - N/A   Clear
10:35 AM 37.4 °F - 28.4 °F 70% 29.96 in 10.0 mi Calm Calm - N/A   Clear
10:55 AM 37.4 °F - 30.2 °F 75% 29.96 in 10.0 mi Calm Calm - N/A   Clear
11:15 AM 37.4 °F - 30.2 °F 75% 29.96 in 10.0 mi Calm Calm - N/A   Clear
11:35 AM 39.2 °F - 30.2 °F 70% 29.95 in 10.0 mi Calm Calm - N/A   Clear
11:55 AM 42.8 °F 41.1 °F 33.8 °F 70% 29.95 in 10.0 mi SE 3.5 mph - N/A   Clear
12:15 PM 44.6 °F 41.4 °F 33.8 °F 66% 29.94 in 10.0 mi South 5.8 mph - N/A   Clear
12:35 PM 44.6 °F 42.2 °F 33.8 °F 66% 29.92 in 10.0 mi South 4.6 mph - N/A   Clear
12:55 PM 48.2 °F - 37.4 °F 66% 29.91 in 10.0 mi SSE 9.2 mph - N/A   Clear
1:15 PM 50.0 °F - 37.4 °F 62% 29.90 in 10.0 mi SSE 10.4 mph - N/A   Clear
1:35 PM 51.8 °F - 39.2 °F 62% 29.89 in 10.0 mi South 12.7 mph - N/A   Clear
1:55 PM 53.6 °F - 39.2 °F 58% 29.88 in 10.0 mi South 11.5 mph - N/A   Clear
2:15 PM 55.4 °F - 39.2 °F 54% 29.87 in 10.0 mi South 9.2 mph - N/A   Clear
2:35 PM 57.2 °F - 39.2 °F 51% 29.86 in 10.0 mi South 11.5 mph - N/A   Clear
2:55 PM 57.2 °F - 39.2 °F 51% 29.85 in 10.0 mi SE 8.1 mph - N/A   Clear
3:15 PM 57.2 °F - 39.2 °F 51% 29.85 in 10.0 mi SE 8.1 mph - N/A   Clear
3:35 PM 57.2 °F - 39.2 °F 51% 29.84 in 10.0 mi SE 9.2 mph - N/A   Clear
3:55 PM 57.2 °F - 39.2 °F 51% 29.84 in 10.0 mi SE 8.1 mph - N/A   Clear
4:15 PM 57.2 °F - 39.2 °F 51% 29.83 in 10.0 mi East 5.8 mph - N/A   Clear
4:35 PM 57.2 °F - 39.2 °F 51% 29.83 in 10.0 mi East 8.1 mph - N/A   Clear
4:55 PM 55.4 °F - 41.0 °F 58% 29.82 in 10.0 mi East 9.2 mph - N/A   Clear
5:15 PM 55.4 °F - 39.2 °F 54% 29.82 in 10.0 mi East 9.2 mph - N/A   Clear
5:35 PM 53.6 °F - 39.2 °F 58% 29.82 in 10.0 mi East 6.9 mph - N/A   Clear
5:55 PM 51.8 °F - 39.2 °F 62% 29.81 in 10.0 mi East 10.4 mph - N/A   Clear
6:15 PM 51.8 °F - 39.2 °F 62% 29.81 in 10.0 mi East 10.4 mph - N/A   Clear
6:35 PM 51.8 °F - 37.4 °F 58% 29.81 in 10.0 mi East 11.5 mph - N/A   Clear
6:55 PM 50.0 °F - 37.4 °F 62% 29.82 in 10.0 mi East 11.5 mph - N/A   Clear
7:15 PM 48.2 °F - 35.6 °F 62% 29.83 in 10.0 mi East 11.5 mph - N/A   Clear
7:35 PM 46.4 °F 41.5 °F 35.6 °F 66% 29.84 in 10.0 mi East 10.4 mph - N/A   Clear
7:55 PM 46.4 °F 41.1 °F 33.8 °F 62% 29.83 in 10.0 mi East 11.5 mph - N/A   Clear
8:15 PM 44.6 °F 39.2 °F 33.8 °F 66% 29.84 in 10.0 mi ESE 10.4 mph - N/A   Clear
8:35 PM 44.6 °F 38.8 °F 33.8 °F 66% 29.84 in 10.0 mi ESE 11.5 mph - N/A   Clear
8:55 PM 44.6 °F 39.2 °F 33.8 °F 66% 29.84 in 10.0 mi SE 10.4 mph - N/A   Clear
9:15 PM 44.6 °F 38.8 °F 32.0 °F 61% 29.84 in 10.0 mi SE 11.5 mph - N/A   Clear
9:35 PM 42.8 °F 37.0 °F 30.2 °F 61% 29.84 in 10.0 mi SE 10.4 mph - N/A   Clear
9:55 PM 42.8 °F 38.0 °F 30.2 °F 61% 29.85 in 10.0 mi SSE 8.1 mph - N/A   Clear
10:15 PM 42.8 °F 38.0 °F 28.4 °F 57% 29.85 in 10.0 mi SSE 8.1 mph - N/A   Clear
10:35 PM 42.8 °F 37.5 °F 28.4 °F 57% 29.85 in 10.0 mi South 9.2 mph - N/A   Clear
10:55 PM 41.0 °F 34.7 °F 28.4 °F 61% 29.85 in 10.0 mi South 10.4 mph - N/A   Clear
11:15 PM 41.0 °F 35.2 °F 28.4 °F 61% 29.85 in 10.0 mi SSE 9.2 mph - N/A   Clear
11:35 PM 39.2 °F 33.6 °F 26.6 °F 61% 29.85 in 10.0 mi SSE 8.1 mph - N/A   Clear
11:55 PM 39.2 °F 35.0 °F 26.6 °F 61% 29.86 in 10.0 mi SE 5.8 mph - N/A   Clear